Fulton, NY

3:47 PM EDT on May 22, 2018 (GMT -0400)
Oswego County

Weather History for KFZY - January, 2014

Change the Weather History Date:

Saturday, January 25, 2014

  Actual Average (KSYR) Record (KSYR)
Temperature  
Mean Temperature 18 °F -  
Max Temperature 25 °F 34 °F 70 °F (1950)
Min Temperature 12 °F 17 °F -15 °F (2004)
Degree Days  
Heating Degree Days 46    
Moisture  
Dew Point 12 °F    
Average Humidity 70    
Maximum Humidity 86    
Minimum Humidity 42    
Precipitation  
Precipitation 0.01 in - - ()
Sea Level Pressure  
Sea Level Pressure 29.41 in    
Wind  
Wind Speed 15 mph (SW)    
Max Wind Speed 25 mph    
Max Gust Speed 36 mph    
Visibility 3 miles    
Events Fog , Snow    
Averages and records for this station are not official NWS values.
T = Trace of Precipitation, MM = Missing Value Source: NWS Daily Summary

Daily Weather History Graph

Daily Weather History Graph

Search for Another Location

Airport or City:

Astronomy

Jan. 25, 2014 Rise Set
Actual Time 7:28 AM EST 5:08 PM EST
Civil Twilight 6:57 AM EST 5:38 PM EST
Nautical Twilight 6:22 AM EST 6:13 PM EST
Astronomical Twilight 5:48 AM EST 6:47 PM EST
Moon 1:57 AM EST (1/25) 12:07 PM EST (1/25)
Length of Visible Light 10h 41m
Length of Day
9h 39m
Waning Crescent, 34% of the Moon is Illuminated
Jan 25
Waning Crescent
Jan 30
New
Feb 6
First Quarter
Feb 14
Full
Feb 22
Last Quarter

Hourly Weather History & Observations

Time (EST) Temp. Windchill Dew Point Humidity Pressure Visibility Wind Dir Wind Speed Gust Speed Precip Events Conditions
12:54 AM 19.0 °F 5.0 °F -0.0 °F 43% 29.73 in 10.0 mi South 15.0 mph 21.9 mph N/A   Overcast
1:54 AM 19.0 °F 5.0 °F -0.9 °F 42% 29.69 in 10.0 mi South 15.0 mph 20.7 mph N/A   Overcast
2:18 AM 19.4 °F 5.0 °F 3.2 °F 49% 29.65 in 4.0 mi South 16.1 mph 28.8 mph 0.00 in Snow Light Snow
2:47 AM 19.4 °F 5.0 °F 3.2 °F 49% 29.64 in 6.0 mi South 16.1 mph 21.9 mph 0.00 in   Haze
2:54 AM 19.0 °F 5.0 °F 5.0 °F 54% 29.66 in 4.0 mi South 15.0 mph 26.5 mph 0.00 in Snow Light Snow
3:36 AM 19.4 °F 6.0 °F 6.8 °F 58% 29.60 in 6.0 mi South 13.8 mph 28.8 mph 0.00 in Snow Light Snow
3:54 AM 19.0 °F 5.0 °F 5.0 °F 54% 29.61 in 10.0 mi South 15.0 mph - 0.00 in   Overcast
4:54 AM 19.0 °F 2.7 °F 5.0 °F 54% 29.57 in 6.0 mi SSW 20.7 mph 29.9 mph 0.00 in   Overcast
5:54 AM 19.9 °F 5.2 °F 3.9 °F 50% 29.53 in 10.0 mi South 17.3 mph 23.0 mph 0.00 in   Overcast
6:54 AM 19.9 °F 6.7 °F 3.0 °F 48% 29.51 in 10.0 mi South 13.8 mph 23.0 mph N/A   Overcast
7:45 AM 19.4 °F 5.0 °F 6.8 °F 58% 29.47 in 4.0 mi South 16.1 mph 26.5 mph 0.00 in Snow Light Snow
7:54 AM 19.0 °F 4.0 °F 8.1 °F 62% 29.49 in 2.5 mi South 17.3 mph 27.6 mph 0.00 in Snow Light Snow
8:18 AM 19.4 °F 5.5 °F 8.6 °F 63% 29.46 in 4.0 mi South 15.0 mph 24.2 mph 0.00 in Snow Light Snow
8:54 AM 19.9 °F 5.2 °F 9.0 °F 62% 29.46 in 7.0 mi South 17.3 mph - 0.00 in   Overcast
9:54 AM 21.0 °F 6.6 °F 7.0 °F 55% 29.44 in 10.0 mi South 17.3 mph 26.5 mph N/A   Overcast
10:54 AM 21.9 °F 8.7 °F 8.1 °F 55% 29.41 in 10.0 mi South 15.0 mph 21.9 mph N/A   Overcast
11:54 AM 23.0 °F 9.6 °F 10.0 °F 58% 29.36 in 9.0 mi South 16.1 mph 26.5 mph N/A   Overcast
12:54 PM 25.0 °F 11.7 °F 10.9 °F 55% 29.32 in 10.0 mi South 17.3 mph 26.5 mph N/A   Overcast
1:54 PM 25.0 °F 12.2 °F 14.0 °F 63% 29.29 in 7.0 mi South 16.1 mph 23.0 mph N/A   Overcast
2:20 PM 24.8 °F 12.9 °F 15.8 °F 69% 29.26 in 2.5 mi South 13.8 mph 21.9 mph 0.00 in Snow Light Snow
2:30 PM 24.8 °F 12.9 °F 17.6 °F 74% 29.26 in 1.2 mi South 13.8 mph - 0.00 in Snow Light Snow
2:37 PM 24.8 °F 13.4 °F 17.6 °F 74% 29.26 in 1.0 mi South 12.7 mph 20.7 mph 0.00 in Snow Light Snow
2:49 PM 24.8 °F 13.4 °F 19.4 °F 80% 29.26 in 0.8 mi South 12.7 mph - 0.00 in Snow Light Snow
2:54 PM 24.1 °F 12.5 °F 19.0 °F 81% 29.28 in 0.8 mi South 12.7 mph 20.7 mph 0.00 in Snow Light Snow
3:50 PM 24.8 °F 15.3 °F 19.4 °F 80% 29.25 in 1.0 mi South 9.2 mph - 0.00 in Snow Light Snow
3:54 PM 24.1 °F 13.7 °F 19.9 °F 84% 29.27 in 1.0 mi South 10.4 mph - 0.00 in Snow Light Snow
4:11 PM 24.8 °F 15.3 °F 19.4 °F 80% 29.25 in 1.2 mi South 9.2 mph - 0.00 in Snow Light Snow
4:21 PM 24.8 °F 14.0 °F 19.4 °F 80% 29.25 in 1.0 mi South 11.5 mph - 0.00 in Snow Light Snow
4:31 PM 24.8 °F 14.6 °F 19.4 °F 80% 29.25 in 1.2 mi South 10.4 mph - 0.00 in Snow Light Snow
4:41 PM 24.8 °F 14.6 °F 21.2 °F 86% 29.26 in 0.8 mi South 10.4 mph - 0.00 in Snow Light Snow
4:54 PM 25.0 °F 15.5 °F 21.0 °F 85% 29.28 in 1.0 mi South 9.2 mph - 0.00 in Snow Light Snow
5:01 PM 24.8 °F 16.1 °F 21.2 °F 86% 29.25 in 1.5 mi South 8.1 mph - 0.00 in Snow Light Snow
5:14 PM 24.8 °F 16.1 °F 21.2 °F 86% 29.26 in 2.5 mi South 8.1 mph - 0.00 in Snow Light Snow
5:40 PM 24.8 °F 16.1 °F 21.2 °F 86% 29.26 in 1.5 mi SSW 8.1 mph - 0.00 in Snow Light Snow
5:54 PM 25.0 °F 16.3 °F 21.0 °F 85% 29.29 in 2.0 mi SSW 8.1 mph - 0.00 in Snow Light Snow
6:09 PM 24.8 °F 16.9 °F 21.2 °F 86% 29.27 in 3.0 mi SSW 6.9 mph - 0.00 in Snow Light Snow
6:20 PM 24.8 °F 17.9 °F 21.2 °F 86% 29.28 in 2.0 mi SSW 5.8 mph - 0.00 in Snow Light Snow
6:33 PM 24.8 °F 14.6 °F 21.2 °F 86% 29.31 in 1.0 mi West 10.4 mph - 0.00 in Snow Light Snow
6:37 PM 24.8 °F 12.9 °F 19.4 °F 80% 29.31 in 0.5 mi WNW 13.8 mph 24.2 mph 0.00 in Fog , Snow Snow
6:48 PM 21.2 °F 8.9 °F 17.6 °F 86% 29.32 in 0.2 mi WNW 12.7 mph 21.9 mph 0.01 in Fog , Snow Heavy Snow
6:54 PM 21.9 °F 8.7 °F 18.0 °F 85% 29.34 in 0.5 mi NW 15.0 mph - 0.01 in Fog , Snow Snow
7:04 PM 21.2 °F 7.3 °F 17.6 °F 86% 29.33 in 1.2 mi NW 16.1 mph 23.0 mph 0.00 in Snow Light Snow
7:12 PM 21.2 °F 8.3 °F 15.8 °F 80% 29.33 in 2.0 mi NW 13.8 mph 23.0 mph 0.00 in Snow Light Snow
7:21 PM 21.2 °F 6.8 °F 14.0 °F 74% 29.34 in 3.0 mi NW 17.3 mph 24.2 mph 0.00 in Snow Light Snow
7:25 PM 21.2 °F 6.8 °F 14.0 °F 74% 29.34 in 1.8 mi NW 17.3 mph 25.3 mph 0.00 in Snow Light Snow
7:46 PM 21.2 °F 6.0 °F 15.8 °F 80% 29.36 in 1.0 mi NW 19.6 mph 31.1 mph 0.00 in Snow Light Snow
7:54 PM 19.9 °F 3.5 °F 12.9 °F 74% 29.39 in 1.2 mi WNW 21.9 mph 31.1 mph 0.00 in Snow Light Snow
8:07 PM 19.4 °F 4.5 °F 12.2 °F 74% 29.39 in 2.0 mi NW 17.3 mph 26.5 mph 0.00 in Snow Light Snow
8:30 PM 19.4 °F 3.6 °F 8.6 °F 63% 29.41 in 3.0 mi NW 19.6 mph 32.2 mph 0.00 in Snow Light Snow
8:54 PM 18.0 °F 0.2 °F 7.0 °F 62% 29.46 in 3.0 mi WNW 24.2 mph 32.2 mph 0.00 in   Overcast
9:06 PM 17.6 °F -0.6 °F 6.8 °F 63% 29.44 in 2.5 mi WNW 25.3 mph 34.5 mph 0.00 in Snow Light Snow
9:49 PM 15.8 °F -1.5 °F 6.8 °F 68% 29.47 in 1.8 mi WNW 20.7 mph 31.1 mph 0.00 in Snow Light Snow
9:54 PM 16.0 °F -1.3 °F 6.1 °F 65% 29.49 in 2.0 mi NW 20.7 mph 28.8 mph 0.00 in Snow Light Snow
10:04 PM 15.8 °F -0.6 °F 6.8 °F 68% 29.48 in 1.2 mi WNW 18.4 mph 35.7 mph 0.00 in Snow Light Snow
10:17 PM 15.8 °F 0.3 °F 8.6 °F 73% 29.49 in 1.0 mi WNW 16.1 mph 28.8 mph 0.00 in Snow Light Snow
10:32 PM 15.8 °F -0.6 °F 6.8 °F 68% 29.49 in 1.8 mi West 18.4 mph 34.5 mph 0.00 in Snow Light Snow
10:54 PM 15.1 °F -2.0 °F 6.1 °F 68% 29.53 in 1.5 mi WNW 19.6 mph 31.1 mph 0.00 in Snow Light Snow
11:12 PM 15.8 °F -0.6 °F 5.0 °F 62% 29.51 in 2.0 mi WNW 18.4 mph 31.1 mph 0.00 in Snow Light Snow
11:27 PM 14.0 °F -4.7 °F 5.0 °F 67% 29.52 in 1.5 mi WNW 23.0 mph 34.5 mph 0.00 in Snow Light Snow
11:43 PM 12.2 °F -4.8 °F 6.8 °F 79% 29.53 in 0.8 mi NW 17.3 mph 32.2 mph 0.00 in Snow Light Snow
11:54 PM 12.0 °F -4.5 °F 8.1 °F 84% 29.56 in 0.5 mi WNW 16.1 mph - 0.00 in Fog , Snow Snow